Location: Unspecified
(48.5670°N, 0.0000°E)
Time: 20:47:08
(UTC+00:00)

Transit 4A - Pass Details

Date: 30 August 2019
Orbit: 865 x 980 km, 66.8° (Epoch: 15 September)

Event Time Altitude Azimuth Distance (km) Brightness Sun altitude
Rises 02:09:41 0° 319° (NW) 3,625 11.1 -25.7°
Reaches altitude 10° 02:12:31 10° 309° (NW) 2,658 10.3 -25.4°
Enters shadow 02:15:25 23° 287° (WNW) 1,851 9.3 -25.1°
